Zurück zum Katalog

PEGASUS DEB

AktivPO
NORAD 25442·DEBRIS·🇺🇸 United States

Gestartet May 19, 1994 von Vandenberg Space Force Base

Loading…

Nächste Überflüge (nächste 24 Stunden)

TLE

AktuellSource: Space-Track

Epoche: Sep 14, 2026, 08:58 UTC

1 25442U 94029ADX 26257.37403848  .00007717  00000-0  11108-2 0  9995
2 25442  81.7494 231.4778 0196205 347.6622  11.9809 14.63887880565374

Verfolge PEGASUS DEB in Echtzeit mit AllMySat

Download on the App Store